Skip Page Navigation
NASA JPL Caltech
NASA Logo - Jet Propulsion Laboratory + View the NASA Portal
+ Near-Earth Object (NEO) Program
Search JPL
JPL Home Earth Solar System Stars & Galaxies Technology
JPL Solar System Dynamics
BODIES ORBITS EPHEMERIDES TOOLS PHYSICAL DATA DISCOVERY FAQ SITE MAP
JPL Small-Body Database Browser
Search: [ help ]  
166570 Adolftrager (2002 RG118)
Classification: Outer Main-belt Asteroid          SPK-ID: 2166570
Ephemeris | Orbit Diagram | Orbital Elements | Physical Parameters | Discovery Circumstances | Close-Approach Data ]

[ show orbit diagram ]
Orbital Elements at Epoch 2456800.5 (2014-May-23.0) TDB
Reference: JPL 6 (heliocentric ecliptic J2000)
 Element Value Uncertainty (1-sigma)   Units 
e .08996277266019725 1.0059e-07  
a 3.226998077250887 7.2075e-08 AU
q 2.936688382852272 3.6163e-07 AU
i 6.560529715050329 1.1898e-05 deg
node 304.1207955914581 8.2619e-05 deg
peri 84.51608023540631 0.00011075 deg
M 352.6835247242496 7.448e-05 deg
tp 2456843.532432421080
(2014-Jul-05.03243242)
0.00043866 JED
period 2117.368690212636
5.80
7.0937e-05
1.942e-07
d
yr
n .1700223497514017 5.6962e-09 deg/d
Q 3.517307771649502 7.8559e-08 AU
  Orbit Determination Parameters
   # obs. used (total)      283  
   data-arc span      4480 days (12.27 yr)  
   first obs. used      2001-06-23  
   last obs. used      2013-09-28  
   planetary ephem.      DE431  
   SB-pert. ephem.      SB431-BIG16  
   condition code      0  
   fit RMS      .48742  
   data source      ORB  
   producer      Otto Matic  
   solution date      2014-Jun-11 11:50:50  

Additional Information
 Earth MOID = 1.94967 AU 
 T_jup = 3.171 
[ show covariance matrix ]

Ephemeris | Orbit Diagram | Orbital Elements | Physical Parameters | Discovery Circumstances | Close-Approach Data ]

Physical Parameter Table
Parameter Symbol Value Units Sigma Reference Notes
absolute magnitude H 14.6 mag n/a MPO270747  

166570 Adolfträger           Discovered 2002 Sept. 8 by KLENOT at Klet.
Adolf Träger (1888-1965) was a Czech painter, known for landscape paintings of the countryside of South Bohemia and the historical towns of Ceské Budejovice and Ceský Krumlov. He was deeply concerned with preservation of historical buildings.
NOTE: some special characters may not display properly (any characters within {} are an attempt to place the proper accent above a character)
Reference: 20080321/MPCPages.arcLast Updated: 2008-03-26

[ show close-approach data ]
Alternate Designations
 2002 RG118 = 2001 MB6 
Ephemeris | Orbit Diagram | Orbital Elements | Physical Parameters | Discovery Circumstances | Close-Approach Data ]
ABOUT SSD CREDITS/AWARDS PRIVACY/COPYRIGHT GLOSSARY LINKS
FirstGov 2014-Jul-29 10:44 UT
(server date/time)  
NASA Home Page
Site Manager:   Donald K. Yeomans
Webmaster  Alan B. Chamberlin